{"data":{"norad_id":68387,"epoch":"2026-05-25T00:00:02.000160Z","epoch_age_seconds":75025,"freshness":"FRESH","line1":"1 68387U 26063H   26145.00002315 -.00044584  00000+0 -13859-2 0  9992","line2":"2 68387  97.2844 287.5511 0000706  90.0212 112.9973 15.33466437  5968","mean_motion":15.33466437,"eccentricity":7.06e-5,"inclination_deg":97.2844,"raan_deg":287.5511,"arg_perigee_deg":90.0212,"mean_anomaly_deg":112.9973,"bstar":-0.0013859,"rev_number":596,"period_min":93.904891900807,"perigee_km":464.99623447397,"apogee_km":465.96255310877,"semimajor_km":6843.6163937914,"source":"CELESTRAK","updated_at":"2026-05-25T13:38:21.929570Z"}}